Location: Caltech
(34.1382°N, 118.1253°W)
Time: 02:20:29
(UTC-07:00)

Cosmos 2360 Rocket - Visible Passes

Search period start: 24 October 2017 00:00
Search period end: 03 November 2017 00:00
Orbit: 834 x 845 km, 71.0° (Epoch: 23 October)

Date Brightness Start Highest point End Pass type
(mag) Time Alt. Az. Time Alt. Az. Time Alt. Az.
24 Oct 5.3 19:40:22 10° WNW 19:43:15 14° W 19:46:08 10° SW visible
25 Oct 5.3 19:24:24 10° WNW 19:27:36 16° W 19:30:48 10° SW visible
26 Oct 5.3 19:08:28 10° WNW 19:11:58 17° W 19:15:26 10° SW visible
27 Oct 5.0 06:27:20 10° SSE 06:31:41 23° E 06:36:02 10° NE visible
27 Oct 5.3 18:52:36 10° WNW 18:56:19 18° W 19:00:02 10° SW visible
28 Oct 5.0 06:11:51 10° SSE 06:16:01 22° E 06:20:12 10° NE visible
28 Oct 5.3 18:36:44 10° NW 18:40:41 20° W 18:44:37 10° SW visible
29 Oct 5.0 05:56:23 10° SE 06:00:23 20° E 06:04:22 10° NE visible
29 Oct 5.3 18:20:53 10° NW 18:25:01 21° W 18:29:10 10° SSW visible
30 Oct 5.1 05:40:57 10° SE 05:44:44 19° E 05:48:31 10° ENE visible
31 Oct 5.1 05:25:32 10° SE 05:29:05 17° E 05:32:39 10° ENE visible
01 Nov 5.1 05:10:09 10° SE 05:13:27 16° E 05:16:45 10° ENE visible
02 Nov 5.1 04:54:49 10° SE 04:57:49 15° E 05:00:48 10° ENE visible
02 Nov 2.2 06:35:40 10° SSW 06:41:11 59° WNW 06:46:45 10° NNE visible
